This demonstration page uses our WeatherBlox Daily Observations layout. Learn more.

39.51506, -84.39828

Hourly Observations for August 13, 2020

Temp ( °F °C ) Dew Point ( °F °C ) Humidity (%) Winds ( mph kmh ) Pressure ( in mb ) Visibility ( mi km ) Precip ( " mm )
12:15 am 00:15 Clear 72 22 68 20.2 90 90 N 3 6 30.06 1018 10 16.0934 0 0
12:35 am 00:35 Clear 71 21.8 68 20.2 91 91 N 5 7 30.05 1018 10 16.0934 0 0
12:55 am 00:55 Clear 71 21.6 68 20.1 91 91 N 3 6 30.06 1018 10 16.0934 0 0
1:15 am 01:15 Clear 70 21.2 68 20 93 93 N 3 6 30.05 1018 10 16.0934 0 0
1:35 am 01:35 Clear 69 20.8 68 19.8 94 94 N 3 6 30.06 1018 10 16.0934 0 0
1:55 am 01:55 Clear 69 20.6 67 19.7 95 95 N 3 6 30.06 1018 10 16.0934 0 0
2:15 am 02:15 Clear 68 20.2 67 19.4 95 95 Calm 30.06 1018 10 16.0934 0 0
2:35 am 02:35 Clear 68 20 67 19.3 96 96 Calm 30.05 1018 10 16.0934 0 0
2:55 am 02:55 Clear 67 19.6 67 19.2 98 98 Calm 30.06 1018 10 16.0934 0 0
3:15 am 03:15 Clear 68 19.9 66 19.1 95 95 N 5 7 30.05 1018 10 16.0934 0 0
3:35 am 03:35 Clear 67 19.7 66 19 96 96 Calm 30.06 1018 10 16.0934 0 0
3:55 am 03:55 Clear 68 19.8 66 18.9 95 95 Calm 30.07 1018 10 16.0934 0 0
4:15 am 04:15 Clear 67 19.6 65 18.6 94 94 N 5 7 30.07 1018 10 16.0934 0 0
4:35 am 04:35 Clear 67 19.5 65 18.5 94 94 N 5 7 30.07 1018 10 16.0934 0 0
4:55 am 04:55 Clear 67 19.3 65 18.4 95 95 Calm 30.06 1018 10 16.0934 0 0
5:15 am 05:15 Clear 66 18.9 65 18.3 96 96 Calm 30.07 1018 10 16.0934 0 0
5:35 am 05:35 Clear 66 18.9 65 18.2 96 96 N 3 6 30.06 1018 10 16.0934 0 0
5:55 am 05:55 Clear 66 18.9 65 18.2 96 96 Calm 30.07 1018 10 16.0934 0 0
6:15 am 06:15 Clear 66 18.9 65 18.2 96 96 Calm 30.07 1018 10 16.0934 0 0
6:35 am 06:35 Clear 65 18.6 65 18.1 97 97 Calm 30.07 1018 10 16.0934 0 0
6:55 am 06:55 Sunny 66 18.7 64 18 96 96 Calm 30.08 1019 10 16.0934 0 0
7:15 am 07:15 Sunny 66 18.7 64 18 96 96 Calm 30.08 1019 10 16.0934 0 0
7:35 am 07:35 Sunny 66 19.1 65 18.3 95 95 Calm 30.08 1019 10 16.0934 0 0
7:55 am 07:55 Sunny 67 19.5 65 18.4 93 93 Calm 30.09 1019 10 16.0934 0 0
8:15 am 08:15 Sunny 69 20.5 66 18.9 91 91 Calm 30.08 1019 10 16.0934 0 0
8:35 am 08:35 Sunny 71 21.7 66 19.1 85 85 NE 5 7 30.07 1018 10 16.0934 0 0
8:55 am 08:55 Sunny 72 22.3 66 19.1 82 82 ENE 3 6 30.08 1019 10 16.0934 0 0
9:15 am 09:15 Sunny 73 22.7 66 19 80 80 NE 5 7 30.08 1019 10 16.0934 0 0
9:35 am 09:35 Partly Cloudy 75 23.7 67 19.6 78 78 ENE 5 7 30.08 1018 10 16.0934 0 0
9:55 am 09:55 Mostly Cloudy 75 23.9 68 19.9 78 78 NE 5 7 30.08 1018 10 16.0934 0 0
10:15 am 10:15 Sunny 77 24.9 69 20.3 76 76 NNE 6 9 30.06 1018 10 16.0934 0 0
10:35 am 10:35 Mostly Cloudy 78 25.6 69 20.5 73 73 NNE 3 6 30.06 1018 10 16.0934 0 0
10:55 am 10:55 Partly Cloudy 80 26.4 70 20.9 72 72 Calm 30.07 1018 10 16.0934 0 0
11:15 am 11:15 Mostly Cloudy 81 27.1 70 20.9 69 69 NE 3 6 30.06 1018 10 16.0934 0 0
11:35 am 11:35 Mostly Cloudy 82 27.8 70 21.1 67 67 NE 5 7 30.06 1018 10 16.0934 0 0
11:55 am 11:55 Sunny 83 28.6 70 21 64 64 ENE 8 13 30.04 1017 10 16.0934 0 0
12:15 pm 12:15 Sunny 84 28.9 69 20.6 61 61 ENE 8 13 30.04 1017 10 16.0934 0 0
12:35 pm 12:35 Sunny 84 28.9 67 19.6 57 57 ENE 3 6 30.04 1017 10 16.0934 0 0
12:55 pm 12:55 Sunny 84 29.1 67 19.6 57 57 NNE 5 7 30.04 1017 10 16.0934 0 0
1:15 pm 13:15 Sunny 85 29.6 67 19.7 55 55 NE 6 9 30.04 1017 10 16.0934 0 0
1:35 pm 13:35 Sunny 85 29.5 66 19 53 53 E 5 7 30.04 1017 10 16.0934 0 0
1:55 pm 13:55 Partly Cloudy 86 30 67 19.6 54 54 N 7 11 30.03 1017 10 16.0934 0 0
2:15 pm 14:15 Partly Cloudy 84 28.9 67 19.2 56 56 Calm 30.02 1017 10 16.0934 0 0
2:35 pm 14:35 Sunny 86 30.1 66 19 51 51 Calm 30.01 1016 10 16.0934 0 0
2:55 pm 14:55 Mostly Cloudy 88 30.9 66 19.1 49 49 Calm 30 1016 10 16.0934 0 0
3:15 pm 15:15 Partly Cloudy 86 30.2 67 19.6 53 53 Calm 29.99 1016 10 16.0934 0 0
3:35 pm 15:35 Sunny 87 30.4 68 19.9 53 53 NNE 7 11 29.98 1015 10 16.0934 0 0
3:55 pm 15:55 Sunny 87 30.6 67 19.5 52 52 NE 5 7 29.98 1015 10 16.0934 0 0
4:15 pm 16:15 Mostly Cloudy 87 30.5 68 19.8 53 53 NNE 3 6 29.97 1015 10 16.0934 0 0
4:35 pm 16:35 Partly Cloudy 87 30.6 67 19.4 51 51 Calm 29.97 1015 10 16.0934 0 0
4:55 pm 16:55 Partly Cloudy 89 31.6 68 19.8 50 50 N 7 11 29.96 1015 10 16.0934 0 0
5:15 pm 17:15 Partly Cloudy 88 30.9 65 18.6 48 48 NNE 3 6 29.96 1015 10 16.0934 0 0
5:35 pm 17:35 Sunny 86 30.2 65 18.6 50 50 Calm 29.96 1015 10 16.0934 0 0
5:55 pm 17:55 Partly Cloudy 87 30.8 67 19.5 51 51 NNW 6 9 29.95 1014 10 16.0934 0 0
6:15 pm 18:15 Sunny 85 29.3 67 19.5 56 56 N 6 9 29.95 1014 10 16.0934 0 0
6:35 pm 18:35 Sunny 84 28.8 68 19.8 58 58 N 7 11 29.95 1014 10 16.0934 0 0
6:55 pm 18:55 Sunny 83 28.6 69 20.3 61 61 NNW 7 11 29.97 1015 10 16.0934 0 0
7:15 pm 19:15 Sunny 83 28.1 68 20 61 61 N 7 11 29.97 1015 10 16.0934 0 0
7:35 pm 19:35 Sunny 82 27.7 68 20.1 63 63 N 3 6 29.97 1015 10 16.0934 0 0
7:55 pm 19:55 Sunny 81 27.1 68 19.9 65 65 N 3 6 29.98 1015 10 16.0934 0 0
8:15 pm 20:15 Sunny 80 26.4 68 20 68 68 NNE 5 7 29.98 1015 10 16.0934 0 0
8:35 pm 20:35 Sunny 79 25.9 69 20.3 71 71 Calm 29.99 1016 10 16.0934 0 0
8:55 pm 20:55 Clear 78 25.3 69 20.4 74 74 N 3 6 29.99 1016 10 16.0934 0 0
9:15 pm 21:15 Clear 77 25.1 68 19.9 73 73 NNE 3 6 29.99 1016 10 16.0934 0 0
9:35 pm 21:35 Hazy 77 24.9 67 19.6 72 72 N 3 6 30 1016 7 11.26538 0 0
9:55 pm 21:55 Clear 76 24.3 68 19.8 76 76 Calm 30 1016 10 16.0934 0 0
10:15 pm 22:15 Clear 75 24.1 69 20.4 80 80 Calm 30.01 1016 10 16.0934 0 0
10:35 pm 22:35 Clear 74 23.3 68 20 82 82 N 3 6 30.01 1016 10 16.0934 0 0
10:55 pm 22:55 Clear 73 22.8 67 19.6 82 82 N 5 7 30 1016 10 16.0934 0 0
11:15 pm 23:15 Clear 74 23.1 67 19.5 80 80 Calm 30.01 1016 10 16.0934 0 0
11:35 pm 23:35 Clear 71 21.6 68 19.9 90 90 Calm 30 1016 10 16.0934 0 0
11:55 pm 23:55 Clear 73 22.5 67 19.3 82 82 Calm 30.01 1016 10 16.0934 0 0

Powered by AerisWeather